Flag for Israel Weather past 2 weeks in Safed, Israel

Now
57 °F

Passing clouds.


Feels Like: 57 °F
Forecast: 40 / 54 °F
Wind: 5 mph from Northeast

Location: Beirut Airport

Current Time: Dec 23, 2014 at 3:09:08 AM

Latest Report: Dec 23, 2014 at 2:00 AM


Visibility: 5 mi

Pressure: 30.07 "Hg

Humidity: 77%

Dew point: 50 °F

Location of SafedLocation

Historic Weather in Safed — Graph

°F

Safed temperature yesterday

Maximum temperature yesterday: 64 °F (at 9:00 AM)
Minimum temperature yesterday: 57 °F (at 5:00 AM)
Average temperature yesterday: 59 °F

Past Weeks' High & Low Weather Summary

 TemperatureHumidityPressure
High81 °F (Dec 8, 10:00 PM)88% (Dec 12, 8:00 PM)30.30 "Hg (Dec 12, 8:00 PM)
Low55 °F (Dec 21, 2:00 AM)24% (Dec 8, 11:00 PM)29.80 "Hg (Dec 9, 1:00 AM)
Average64 °F62%30.10 "Hg
* Reported Dec 8 1:00 AM — Dec 23 1:00 AM, Safed, Weather by CustomWeather, © 2014

Note: Actual official high and low records may vary slightly from our data, if they occured in-between our weather recording intervals... More about our weather records

Advertising

Safed weather history for previous 24 hours

 ConditionsComfort  
Time TempWeatherWind HumidityBarometerVisibility
1:00 AM
Dec 23
55 °FPassing clouds.5 mph82%30.07 "Hg5 mi
12:00 AM55 °FThunderstorms. Passing clouds.5 mph88%30.07 "Hg5 mi
11:00 PM
Dec 22
57 °FRain. Passing clouds.5 mph82%30.07 "Hg4 mi
10:00 PM57 °FPassing clouds.5 mph88%30.07 "HgN/A
9:00 PM57 °FPassing clouds.3 mph88%30.07 "HgN/A
8:00 PM59 °FPassing clouds.6 mph82%30.04 "HgN/A
7:00 PM59 °FLight rain. Passing clouds.2 mph82%30.04 "Hg5 mi
6:00 PM57 °FThunderstorms. Passing clouds.7 mph88%30.01 "Hg5 mi
5:00 PM57 °FThunderstorms. Passing clouds.7 mph88%30.01 "Hg4 mi
4:00 PM59 °FRain. Overcast.21 mph77%30.01 "Hg4 mi
3:00 PM59 °FRain. Overcast.14 mph88%30.01 "Hg4 mi
2:00 PM59 °FRain. Partly sunny.17 mph82%29.98 "Hg4 mi
1:00 PM61 °FLight rain. Overcast.13 mph77%30.01 "Hg4 mi
12:00 PM59 °FLight rain. Overcast.13 mph77%30.04 "Hg4 mi
11:00 AM63 °FLight rain. Partly sunny.15 mph64%30.07 "Hg5 mi
10:00 AM64 °FScattered clouds.12 mph56%30.09 "Hg5 mi
9:00 AM64 °FScattered clouds.12 mph56%30.09 "Hg5 mi
8:00 AM61 °FScattered clouds.8 mph63%30.09 "Hg5 mi
7:00 AM57 °FPartly sunny.3 mph67%30.09 "Hg5 mi
6:00 AM57 °FPassing clouds.3 mph72%30.09 "Hg5 mi
5:00 AM57 °FPassing clouds.3 mph72%30.09 "Hg5 mi
4:00 AM59 °FPassing clouds.6 mph72%30.12 "Hg5 mi
3:00 AM59 °FPassing clouds.6 mph72%30.12 "Hg5 mi
Weather by CustomWeather, © 2014

See weather overviewHow to use our weather pages